Stations météo

Publicité
Geneve-Cointrin, Suisse (6700): Température de l'air & dewpoint: 03.12.2019 14:00:00 - 09.12.2019 14:00:00 (CET)Geneve-Cointrin, Suisse (6700): Température de l'air 5cm: 03.12.2019 14:00:00 - 09.12.2019 14:00:00 (CET)Geneve-Cointrin, Suisse (6700): Vitesse du vent & gusts: 03.12.2019 14:00:00 - 09.12.2019 14:00:00 (CET)Geneve-Cointrin, Suisse (6700): Direction du vent: 03.12.2019 14:00:00 - 09.12.2019 14:00:00 (CET)Geneve-Cointrin, Suisse (6700): reduced air pressure: 03.12.2019 14:00:00 - 09.12.2019 14:00:00 (CET)Geneve-Cointrin, Suisse (6700): visibility: 03.12.2019 14:00:00 - 09.12.2019 14:00:00 (CET)Geneve-Cointrin, Suisse (6700): Ensoleillement: 03.12.2019 14:00:00 - 09.12.2019 14:00:00 (CET)Geneve-Cointrin, Suisse (6700): Quantités de précipitations: 03.12.2019 14:00:00 - 09.12.2019 14:00:00 (CET)
Date & Time tt [°C] td [°C] tt 5cm [°C] ff [km/h] ff [knt] fx [km/h] fx [knt] dd ppp [hPa] vv [km] sd [min] rr [mm]
09.12.2019 14:00:00 - - - - - - - - - - - -
09.12.2019 13:00:00 6,8 4,1 5,8 33 18 49 26 SSW 1012,1 9 0 0,2
09.12.2019 12:00:00 6,6 4,6 5,8 31 17 49 26 SSW 1012,2 - 0 0,8
09.12.2019 11:00:00 6,4 4,3 5,4 26 14 49 26 SW 1013,1 - 0 0,8
09.12.2019 10:00:00 6,8 3,5 5,5 31 17 52 28 SSW 1012,9 7 0 0,2
09.12.2019 09:00:00 7,2 2,9 5,8 32 17 44 24 SSW 1013,3 - 0 0,0
09.12.2019 08:00:00 7,4 2,7 5,4 29 16 50 27 SSW 1013,1 - 0 0,0
09.12.2019 07:00:00 7,4 3,5 5,5 26 14 42 23 SW 1013,1 17 0 0,2
09.12.2019 06:00:00 8,1 3,0 6,8 25 14 42 23 SSW 1013,0 - 0 0,0
09.12.2019 05:00:00 8,1 2,1 4,9 15 8 35 19 SSW 1013,3 - 0 0,1
09.12.2019 04:00:00 8,3 1,5 6,7 24 13 39 21 SW 1014,0 - 0 0,0
09.12.2019 03:00:00 8,5 1,7 6,8 23 13 32 17 SW 1014,8 - 0 0,0
09.12.2019 02:00:00 8,6 3,3 6,8 14 7 36 19 W 1015,3 - 0 0,0
09.12.2019 01:00:00 9,2 6,0 7,7 21 11 34 19 SW 1014,5 - 0 0,0
09.12.2019 00:00:00 9,0 5,9 8,0 13 7 35 19 SW 1015,1 - 0 0,0
08.12.2019 23:00:00 9,0 5,7 7,9 25 13 36 19 SW 1015,0 - 0 0,0
08.12.2019 22:00:00 8,5 5,0 6,9 12 6 27 15 SW 1015,3 20 0 0,1
08.12.2019 21:00:00 8,7 5,0 7,4 23 12 42 23 SW 1015,4 - 0 0,0
08.12.2019 20:00:00 9,3 4,7 7,5 20 11 32 18 W 1014,9 - 0 0,0
08.12.2019 19:00:00 9,9 3,7 7,4 27 14 39 21 S 1014,8 30 0 0,0
08.12.2019 18:00:00 8,8 3,3 7,6 4 2 16 9 W 1016,0 - 0 0,0
08.12.2019 17:00:00 7,6 3,1 4,9 8 4 19 10 W 1016,1 - 0 0,0
08.12.2019 16:00:00 9,9 3,8 9,3 13 7 27 14 WSW 1016,0 40 0 0,0
08.12.2019 15:00:00 10,9 3,7 10,0 12 7 26 14 SW 1016,3 - 3 0,0
08.12.2019 14:00:00 11,2 3,4 9,6 20 11 29 16 SW 1017,0 - 60 0,0
08.12.2019 13:00:00 10,4 3,0 10,5 18 10 30 16 SW 1018,1 40 59 0,0
08.12.2019 12:00:00 9,3 3,5 9,0 9 5 19 10 SW 1019,3 - 60 0,0
08.12.2019 11:00:00 6,9 3,0 7,3 2 1 7 4 W 1020,5 - 60 0,0
08.12.2019 10:00:00 4,4 2,6 4,0 2 1 13 7 NW 1020,9 40 60 0,0
08.12.2019 09:00:00 0,6 0,4 -1,8 2 1 6 3 S 1021,9 - 7 0,0
08.12.2019 08:00:00 1,0 0,3 -3,0 2 1 13 7 NW 1021,8 - 0 0,0
08.12.2019 07:00:00 0,4 0,2 -2,4 5 3 12 7 SSW 1022,2 25 0 0,0
08.12.2019 06:00:00 0,4 -0,3 -2,4 5 3 11 6 WSW 1022,1 - 0 0,0
08.12.2019 05:00:00 -0,3 -1,3 -3,6 1 1 13 7 NNW 1022,8 - 0 0,0
08.12.2019 04:00:00 -0,2 -0,3 -2,3 3 1 13 7 WSW 1023,1 - 0 0,0
08.12.2019 03:00:00 0,8 0,1 -2,6 2 1 8 4 W 1023,2 - 0 0,0
08.12.2019 02:00:00 1,1 0,8 -2,1 2 1 6 3 W 1023,1 - 0 0,0
08.12.2019 01:00:00 1,2 0,7 -1,7 5 3 10 5 SSW 1023,4 - 0 0,0
08.12.2019 00:00:00 1,5 1,0 -1,1 1 1 13 7 WNW 1023,8 - 0 0,0
07.12.2019 23:00:00 2,4 2,0 -0,4 3 2 11 6 WSW 1023,6 - 0 0,0
07.12.2019 22:00:00 3,3 2,7 0,1 3 1 8 4 NNW 1023,6 40 0 0,0
07.12.2019 21:00:00 4,3 3,2 0,6 3 1 7 4 N 1023,3 - 0 0,0
07.12.2019 20:00:00 5,6 4,1 1,5 4 2 12 6 SW 1022,8 - 0 0,0
07.12.2019 19:00:00 6,3 4,0 3,0 5 3 14 7 WNW 1022,6 50 0 0,0
07.12.2019 18:00:00 7,6 4,4 4,1 8 4 16 9 WSW 1021,9 - 0 0,0
07.12.2019 17:00:00 9,9 5,2 5,9 10 6 28 15 SSW 1021,1 - 10 0,0
07.12.2019 16:00:00 11,2 5,2 9,6 21 11 29 16 SW 1020,6 35 0 0,0
07.12.2019 15:00:00 11,7 5,5 11,3 14 7 26 14 SSW 1020,6 - 0 0,0
07.12.2019 14:00:00 11,6 4,9 11,4 15 8 29 16 WSW 1020,6 - 0 0,0
07.12.2019 13:00:00 11,8 4,6 11,9 19 11 38 21 SW 1021,0 35 12 0,0
07.12.2019 12:00:00 12,6 4,7 13,6 26 14 35 19 SW 1020,9 - 49 0,0
07.12.2019 11:00:00 10,9 3,1 11,7 21 11 27 15 SSW 1021,7 - 9 0,0
07.12.2019 10:00:00 9,4 1,1 8,6 16 8 28 15 SSW 1021,8 40 0 0,0
07.12.2019 09:00:00 7,9 1,2 6,2 6 3 20 11 SSW 1021,8 - 0 0,0
07.12.2019 08:00:00 6,0 0,6 4,5 8 5 14 8 W 1021,6 - 0 0,0
07.12.2019 07:00:00 6,7 -0,1 4,6 10 6 16 9 WSW 1021,1 50 0 0,0
07.12.2019 06:00:00 7,3 0,1 5,2 6 3 11 6 W 1020,7 - 0 0,0
07.12.2019 05:00:00 7,7 0,0 5,8 11 6 16 9 SSW 1020,4 - 0 0,0
07.12.2019 04:00:00 7,8 0,0 6,3 10 6 22 12 SW 1020,4 - 0 0,0
07.12.2019 03:00:00 7,6 -0,3 6,3 9 5 22 12 W 1020,8 - 0 0,0
07.12.2019 02:00:00 7,6 -0,7 5,9 13 7 23 13 WSW 1020,5 - 0 0,0
07.12.2019 01:00:00 5,9 0,6 4,3 4 2 11 6 SW 1021,4 - 0 0,0
07.12.2019 00:00:00 6,4 0,4 4,8 5 3 15 8 W 1021,2 - 0 0,0
06.12.2019 23:00:00 4,8 1,1 3,5 6 4 11 6 SSW 1021,4 - 0 0,0
06.12.2019 22:00:00 4,1 1,1 3,0 3 2 9 5 SSW 1021,6 20 0 0,0
06.12.2019 21:00:00 4,2 0,6 1,7 4 2 9 5 SSW 1021,4 - 0 0,0
06.12.2019 20:00:00 3,9 0,5 0,9 2 1 8 4 NNW 1021,8 - 0 0,0
06.12.2019 19:00:00 4,9 1,3 1,8 2 1 5 3 NNW 1021,4 20 0 0,0
06.12.2019 18:00:00 5,0 1,2 0,6 2 1 7 4 N 1021,3 - 0 0,0
06.12.2019 17:00:00 5,9 1,3 1,3 3 1 7 4 N 1021,3 - 1 0,0
06.12.2019 16:00:00 7,6 0,7 6,8 3 2 9 5 SW 1021,1 22 55 0,0
06.12.2019 15:00:00 7,7 0,2 7,1 5 3 11 6 SW 1021,5 - 41 0,0
06.12.2019 14:00:00 6,7 0,6 4,7 4 2 13 7 W 1022,3 - 60 0,0
06.12.2019 13:00:00 5,3 0,6 7,0 5 3 9 5 SW 1023,5 17 60 0,0
06.12.2019 12:00:00 2,6 0,2 3,0 3 2 10 6 SW 1025,1 - 47 0,0
06.12.2019 11:00:00 -0,8 -0,8 1,0 4 2 11 6 WNW 1026,7 - 0 0,0
06.12.2019 10:00:00 -0,9 -1,1 -0,3 4 2 11 6 WNW 1026,9 0,3 0 0,0
06.12.2019 09:00:00 -1,3 -1,3 -1,0 4 2 8 4 NW 1026,7 - 0 0,0
06.12.2019 08:00:00 -1,6 -1,7 -1,4 5 3 11 6 NW 1026,6 - 0 0,0
06.12.2019 07:00:00 -1,2 -1,3 -0,9 6 3 9 5 WNW 1026,4 0,4 0 0,0
06.12.2019 06:00:00 -1,4 -1,4 -1,1 6 3 11 6 WNW 1026,4 - 0 0,0
06.12.2019 05:00:00 -1,4 -1,5 -1,1 5 3 11 6 WNW 1026,4 - 0 0,0
06.12.2019 04:00:00 -0,9 -1,1 -0,9 7 4 13 7 W 1026,5 - 0 0,0
06.12.2019 03:00:00 -0,8 -0,8 -0,6 6 3 10 5 WNW 1026,7 - 0 0,0
06.12.2019 02:00:00 -0,6 -0,7 -0,4 6 4 10 5 WNW 1026,5 - 0 0,0
06.12.2019 01:00:00 -0,1 -0,4 -0,1 9 5 13 7 W 1026,6 - 0 0,0
06.12.2019 00:00:00 0,2 0,2 0,5 6 3 12 6 W 1027,1 - 0 0,0
05.12.2019 23:00:00 0,7 0,4 0,6 8 4 12 6 W 1027,2 - 0 0,0
05.12.2019 22:00:00 1,0 0,5 0,9 7 4 13 7 W 1027,1 3,8 0 0,0
05.12.2019 21:00:00 1,3 0,6 1,3 7 4 11 6 W 1027,1 - 0 0,0
05.12.2019 20:00:00 1,3 0,6 1,3 7 4 11 6 WNW 1027,0 - 0 0,0
05.12.2019 19:00:00 1,9 0,6 1,5 7 4 9 5 W 1026,4 5 0 0,0
05.12.2019 18:00:00 1,8 0,6 1,0 5 3 7 4 W 1025,8 - 0 0,0
05.12.2019 17:00:00 1,3 -0,1 -0,8 5 3 8 5 W 1025,4 - 1 0,0
05.12.2019 16:00:00 3,0 0,6 2,5 5 3 11 6 WSW 1024,8 5 8 0,0
05.12.2019 15:00:00 3,8 1,1 4,3 7 4 12 6 WNW 1024,6 - 0 0,0
05.12.2019 14:00:00 3,7 0,7 5,3 6 3 13 7 SSW 1024,8 - 0 0,0
05.12.2019 13:00:00 3,3 0,9 4,0 1 1 13 7 NNW 1025,1 5 0 0,0
05.12.2019 12:00:00 2,6 0,8 3,1 6 3 13 7 E 1025,5 - 0 0,0
05.12.2019 11:00:00 2,6 0,8 3,0 4 2 12 7 SE 1025,6 - 0 0,0
05.12.2019 10:00:00 2,4 0,5 2,6 5 3 11 6 S 1025,2 4,5 0 0,0
05.12.2019 09:00:00 2,3 0,9 2,2 6 3 12 7 WSW 1024,9 - 0 0,0
05.12.2019 08:00:00 2,3 1,0 2,2 3 1 13 7 NNE 1024,4 - 0 0,0
05.12.2019 07:00:00 2,0 0,7 2,0 2 1 8 4 N 1024,0 5 0 0,0
05.12.2019 06:00:00 2,3 1,0 2,2 4 2 13 7 NNE 1024,0 - 0 0,0
05.12.2019 05:00:00 2,3 0,7 2,1 2 1 13 7 NW 1024,0 - 0 0,0
05.12.2019 04:00:00 2,1 0,5 1,9 4 2 11 6 NW 1024,1 - 0 0,0
05.12.2019 03:00:00 2,5 0,8 2,3 4 2 7 4 W 1024,1 - 0 0,0
05.12.2019 02:00:00 2,3 0,7 2,1 3 2 9 5 N 1023,8 - 0 0,0
05.12.2019 01:00:00 2,3 0,5 2,2 4 2 13 7 WNW 1023,8 - 0 0,0
05.12.2019 00:00:00 2,4 0,6 2,3 4 2 8 4 NNE 1023,5 - 0 0,0
04.12.2019 23:00:00 2,6 0,6 2,3 3 2 13 7 NNE 1023,1 - 0 0,0
04.12.2019 22:00:00 2,7 0,6 2,4 3 2 6 4 NW 1022,9 7 0 0,0
04.12.2019 21:00:00 2,5 0,3 2,0 2 1 11 6 W 1022,7 - 0 0,0
04.12.2019 20:00:00 2,0 0,0 1,7 4 2 6 3 NNW 1022,6 - 0 0,0
04.12.2019 19:00:00 2,7 -0,3 1,6 5 3 7 4 NW 1022,2 8 0 0,0
04.12.2019 18:00:00 2,1 -0,4 -0,5 2 1 11 6 NNW 1021,8 - 0 0,0
04.12.2019 17:00:00 2,6 -0,4 1,6 3 1 11 6 NNW 1021,6 - 0 0,0
04.12.2019 16:00:00 3,2 -0,1 3,0 1 1 14 7 NNW 1021,0 10 0 0,0
04.12.2019 15:00:00 3,3 0,0 3,8 4 2 13 7 NNE 1020,7 - 0 0,0
04.12.2019 14:00:00 3,5 0,2 4,1 2 1 17 9 NE 1020,7 - 0 0,0
04.12.2019 13:00:00 3,5 0,1 4,1 7 4 16 9 N 1021,0 8 0 0,0
04.12.2019 12:00:00 3,0 -0,4 3,9 5 3 13 7 N 1021,6 - 0 0,0
04.12.2019 11:00:00 2,7 -0,8 3,4 6 3 13 7 N 1022,3 - 0 0,0
04.12.2019 10:00:00 2,5 -0,8 2,7 3 1 13 7 NW 1022,7 8 0 0,0
04.12.2019 09:00:00 2,0 -1,1 1,8 5 3 11 6 N 1022,9 - 0 0,0
04.12.2019 08:00:00 2,0 -1,4 1,5 4 2 13 7 NNW 1022,9 - 0 0,0
04.12.2019 07:00:00 2,0 -1,0 1,5 3 2 13 7 NNW 1023,0 9 0 0,0
04.12.2019 06:00:00 2,3 -1,0 1,8 3 1 13 7 WNW 1023,3 - 0 0,0
04.12.2019 05:00:00 2,2 -1,4 1,5 3 2 13 7 WNW 1023,9 - 0 0,0
04.12.2019 04:00:00 2,3 -1,8 1,6 2 1 12 7 WNW 1024,0 - 0 0,0
04.12.2019 03:00:00 2,4 -1,6 1,8 3 2 10 5 NW 1024,5 - 0 0,0
04.12.2019 02:00:00 2,5 -1,6 2,0 5 3 13 7 N 1024,7 - 0 0,0
04.12.2019 01:00:00 2,5 -1,5 2,0 7 4 15 8 N 1025,0 - 0 0,0
04.12.2019 00:00:00 2,6 -1,7 2,0 6 3 14 8 N 1025,5 - 0 0,0
03.12.2019 23:00:00 2,5 -1,6 2,0 7 4 14 8 N 1025,6 - 0 0,0
03.12.2019 22:00:00 2,6 -2,0 2,0 9 5 19 11 N 1026,1 22 0 0,0
03.12.2019 21:00:00 2,7 -2,0 2,1 8 4 20 11 N 1026,2 - 0 0,0
03.12.2019 20:00:00 2,5 -1,7 2,0 7 4 16 8 N 1026,5 - 0 0,0
03.12.2019 19:00:00 2,3 -1,9 1,7 8 4 17 9 N 1026,4 22 0 0,0
03.12.2019 18:00:00 3,0 -1,8 2,3 7 4 15 8 N 1026,3 - 0 0,0
03.12.2019 17:00:00 3,2 -1,8 2,3 6 4 17 9 N 1026,2 - 0 0,0
03.12.2019 16:00:00 3,5 -1,3 3,3 9 5 20 11 NNE 1026,2 22 17 0,0
03.12.2019 15:00:00 3,5 -1,5 3,6 12 6 23 12 ENE 1025,8 - 15 0,0
03.12.2019 14:00:00 3,9 -1,5 3,8 16 8 23 13 NE 1026,0 - 22 0,0

tt = Température de l'air
td = dewpoint
tt 5cm = Température de l'air 5cm
ff = Vitesse du vent
fx = gusts
dd = Direction du vent
ppp = reduced air pressure
vv = visibility
sd = Ensoleillement
rr = Quantités de précipitations

stations d'obs. à proximité